Cloud_Cover
100 99 100 100 100 100 100 100 100 100 100 100 100 100 90 80 43 41 53 6 5 20 61 5 12 100 100 100 42 62 36 34 100 56 98 5 5 25 5 3 5 5 4 0
100 100 100 100 100 100 100 100 100 100 100 100 100 100 100 100 80 100 100 6 64 68 64 54 44 100 100 100 100 97 70 81 66 74 100 8 5 19 5 2 5 8 4 0
100 100 100 100 100 100 100 100 100 100 100 100 100 100 100 100 100 100 100 100 90 100 100 100 100 100 100 100 100 100 100 100 66 36 90 95 20 34 5 5 37 19 5 0
100 100 100 100 100 100 100 100 97 100 89 96 100 100 100 100 100 100 100 100 100 100 100 100 100 100 100 70 43 97 56 56 59 6 63 97 97 62 5 3 5 19 20 1
100 100 100 100 99 100 100 100 100 89 100 100 100 96 100 100 100 100 100 100 100 100 100 100 100 100 100 98 26 73 50 13 68 96 96 100 100 87 17 5 5 44 82 4
99 100 100 100 100 100 100 100 100 100 82 100 100 100 100 100 100 100 100 100 100 100 100 100 90 100 100 92 77 100 91 85 94 63 73 100 100 79 10 6 5 96 92 37
100 100 100 100 100 100 100 100 100 100 100 100 84 59 100 100 100 100 100 100 100 100 100 100 100 92 100 94 100 100 89 50 100 97 98 99 100 100 6 6 5 66 99 98
89 100 100 100 100 100 100 89 52 96 100 100 98 100 100 100 100 99 100 100 100 100 100 100 100 100 100 100 100 100 37 98 92 100 80 97 100 100 99 8 6 23 95 100
100 96 100 100 100 100 100 100 98 21 99 100 100 100 100 100 100 100 99 100 100 99 96 100 100 100 100 100 100 100 53 100 100 100 87 96 100 100 100 89 74 40 98 100
100 100 100 100 100 96 92 92 96 99 100 86 87 100 100 97 77 99 100 100 100 99 100 100 100 100 100 100 100 98 91 100 100 100 100 77 96 100 100 100 51 79 78 97
100 100 100 100 100 100 100 100 100 100 59 96 100 86 100 100 100 72 94 86 75 98 100 100 100 100 98 96 99 100 100 75 100 100 100 88 100 100 100 100 31 95 82 100
100 100 100 100 100 100 100 72 92 100 88 79 100 100 100 100 100 99 5 12 78 100 100 100 100 100 100 100 96 100 100 100 96 84 87 100 100 100 100 100 100 100 95 100
100 100 100 100 74 32 88 100 100 100 100 100 100 100 100 47 17 33 46 16 68 67 82 97 95 100 100 84 100 100 95 70 56 99 81 68 100 100 100 100 100 93 100 100
100 100 100 100 100 100 100 100 100 100 82 53 51 100 100 97 32 79 23 86 65 94 93 100 89 99 100 100 100 100 100 100 93 81 98 97 100 100 100 100 100 83 96 100
100 100 100 100 100 100 99 100 90 62 95 32 90 78 87 33 5 9 6 98 100 100 100 100 100 97 100 100 100 100 100 100 100 100 100 100 100 100 100 100 100 98 100 100
100 100 100 100 100 100 100 100 37 35 100 100 100 100 100 100 98 100 100 100 100 100 100 100 100 100 100 100 100 100 100 100 100 100 100 100 100 100 100 100 100 100 100 100
100 100 100 100 100 100 100 100 100 100 100 100 100 100 100 100 96 100 100 79 98 100 100 100 100 100 100 100 100 100 100 100 100 100 100 100 100 100 100 100 100 100 100 100
96 64 100 100 100 100 100 100 100 100 100 100 100 100 100 100 100 100 100 100 100 100 100 100 100 100 100 100 100 100 100 100 100 100 100 100 100 100 100 100 100 100 100 100
100 100 100 100 100 100 100 100 100 100 100 100 100 100 100 100 100 100 100 100 100 100 100 100 100 100 83 99 100 100 100 100 100 100 100 99 100 100 100 100 100 100 100 100
100 100 90 95 60 46 100 100 100 100 100 100 100 100 100 100 99 92 69 26 57 31 84 15 4 6 53 96 100 100 100 100 100 100 100 100 100 100 100 100 100 100 100 100
100 100 100 90 100 14 3 14 81 37 99 100 100 88 34 90 31 12 73 100 100 82 100 66 11 8 100 100 100 100 100 100 100 100 100 100 100 100 100 100 100 100 100 100
100 100 100 100 94 70 31 79 91 100 61 36 5 22 12 19 74 100 51 72 16 67 96 99 92 27 84 100 100 100 100 100 100 100 100 100 100 100 100 100 100 100 100 100
100 100 100 100 100 100 100 100 100 100 90 61 37 90 100 100 100 100 16 78 98 99 97 100 100 100 100 100 100 100 100 100 100 100 100 100 100 100 100 100 100 100 100 100
100 100 99 100 100 100 100 100 100 100 100 100 100 100 95 50 63 42 11 82 74 94 98 95 78 27 5 11 37 96 99 100 100 100 100 100 100 100 100 100 100 100 100 100
5 3 5 23 41 100 100 100 100 100 100 98 83 51 83 40 38 90 37 69 76 53 36 5 5 5 4 1 10 46 100 100 100 100 100 100 100 100 100 100 100 100 100 100
2 5 2 2 3 4 48 79 95 31 18 96 47 22 14 59 5 5 0 0 1 1 5 5 5 5 5 4 0 0 92 100 100 100 100 100 100 100 100 100 100 100 100 100